CHUANG XIN 1-03

Satellite information

Favourite Embed

Satellite Type and Status

PAYLOADIN ORBIT

Key statistics

Satellite CHUANG XIN 1-03 at a glance.

Uptime

4978

Days in orbit

Revolutions

≈ 14.3

Per day

Orbit

SSO

Sun Synchronous Orbit

Inclination

98.7

Latest

Satellite identification and parameters

Extended collection of information and parameters for CHUANG XIN 1-03.

Object identification

Identified? True

Debris? False

Object name: CHUANG XIN 1-03

International designator: 2011-068A

Object number (NORAD): 37930

Object ID (CCSDS): 37930

Country: PEOPLES REPUBLIC OF CHINA (PRC)

Current information (Y/N): Y

RCS size: MEDIUM

Orbital parameters

Period: 100.669 minutes

Inclination: 98.7126 deg

SMA: 7168.434 km

Apoapsis: 801.725 km

Periapsis: 778.874 km

RAAN: 199.0655 deg

Eccentricy: 0.0015939

Argument of periapsis: 54.5684 deg

Mean anomaly: 65.6814 deg

Mean motion: 14.30428976 rev/day

Mean motion (dot): 0.00000063 rev/day2

B* drag term: 0.000041244 1/REarth

Two-line elements (TLE)

Creation date: July 5, 2025, 10:36 p.m.

Reference frame: TEME

Reference center: EARTH

Epoch: July 5, 2025, 9:08 p.m. UTC

TLE line 0: 0 CHUANG XIN 1-03

TLE line 1: 1 37930U 11068A 25186.88111407 .00000063 00000-0 41244-4 0 9998

TLE line 2: 2 37930 98.7126 199.0655 0015939 54.5684 65.6814 14.30428976713523

Live tracking on map

Real-time ground track for satellite CHUANG XIN 1-03.

In-orbit conjunctions

There are no conjunctions computed for CHUANG XIN 1-03, at the moment. Check back to stay up to date, as we update our databases every day.

Go to all conjunctions

Associated space launch

CHUANG XIN 1-03 was lifted into orbit during the mission ‘Long March 2D | Shiyan Weixing 4 & Chuang Xin 1C’, on board a Long March 2D space rocket.

The launch took place on Nov. 20, 2011, 12:15 a.m. from Launch Area 4 (SLS-2 / 603).

For more information about the launch, click the button.

Launch to space Long March 2D | Shiyan Weixing 4 & Chuang Xin 1C
Long March 2D | Shiyan Weixing 4 & Chuang Xin 1C

Agency: N/A

Status: Launch Successful

Launch date: Nov. 20, 2011, 12:15 a.m. UTC

Rocket: Long March 2D

Launch pad: Launch Area 4 (SLS-2 / 603)

Location: Jiuquan Satellite Launch Center, People's Republic of China

...

Latest news about this satellite

There are no fresh news available about this satellite. Check back as we update our databases every day.


Newsletter sign-up

Weekly statistics, charts and insights to help you stay on top of the space industry.